Terminal Aerodrome Forecast
Issued by NWS

Home | Current Version | Previous Version | Text Only | Print | Product List | Glossary On
Versions: 1 2 3 4 5 6 7 8 9 10 11 12 13 14 15
000
FTUS43 KDVN 292320
TAFBRL
TAF
KBRL 292320Z 3000/3024 02010KT P6SM OVC050
     FM300700 03008KT P6SM OVC025
     FM301100 03009KT P6SM OVC015
     FM301900 03012KT P6SM BKN035=

USA.gov is the U.S. government's official web portal to all federal, state and local government web resources and services.